Regional Weather Roundup
Issued by NWS

Home | Current Version | Previous Version | Graphics & Text | Print | Product List | Glossary Off
Versions: 1 2 3 4 5 6 7 8 9 10 11 12 13 14 15 16 17 18 19 20 21 22 23 24 25 26 27 28 29 30 31 32 33 34 35 36 37 38 39 40 41 42 43 44 45 46 47 48 49 50

000
ASUS43 KTOP 290408
RWRKS

WEATHER ROUNDUP FOR KANSAS
NATIONAL WEATHER SERVICE GOODLAND KS
1100 PM CDT TUE JUL 28 2015

NOTE:  "FAIR" INDICATES FEW OR NO CLOUDS BELOW 12,000 FEET WITH NO
SIGNIFICANT WEATHER AND/OR OBSTRUCTIONS TO VISIBILITY.

KSZ001>006-013>018-027>032-041>047-290500-
NORTHWEST KANSAS

CITY           SKY/WX    TMP DP  RH WIND       PRES   REMARKS
GOODLAND       PTCLDY    60  52  74 CALM      30.17R
HAYS           CLEAR     73  55  53 N8        30.04R
HILL CITY      CLEAR     66  59  78 N3        30.07R
RUSSELL        MOCLDY    76  60  57 N13       30.02R
$$

KSZ061>065-074>080-084>089-290500-
SOUTHWEST KANSAS

CITY           SKY/WX    TMP DP  RH WIND       PRES   REMARKS
DODGE CITY     PTCLDY    75  61  61 N13       30.04R
ELKHART          N/A     75  58  55 N8          N/A
GARDEN CITY    MOCLDY    72  59  63 NE12      30.07R
GREAT BEND     CLEAR     79  61  53 NE13      30.01R
LIBERAL        CLOUDY    79  61  53 N10       30.06R
PRATT          PTCLDY    81  70  69 N12       29.99R
$$

KSZ066>073-081>083-090>101-290500-
SOUTHEAST KANSAS

CITY           SKY/WX    TMP DP  RH WIND       PRES   REMARKS
CHANUTE        CLEAR     78  72  81 S7        29.96R
COFFEYVILLE    CLEAR     79  74  84 S6        29.94R
HUTCHINSON     MOCLDY    90  69  50 S7        29.96R
MEDICINE LODGE   N/A     86  70  58 S6        29.95R
NEWTON         CLEAR     86  66  51 S12       29.97R
PARSONS        CLEAR     79  74  84 CALM      29.96R
WICHITA INTL   PTCLDY    86  70  58 S12       29.93R
WICHITA JABRA  CLEAR     85  70  60 S12       29.94R
WINFIELD       CLEAR     82  69  64 S9        29.95R
$$

KSZ007>012-019>026-033>040-048>060-102>105-290500-
NORTHEAST KANSAS

CITY           SKY/WX    TMP DP  RH WIND       PRES   REMARKS
CONCORDIA      MOCLDY    75  62  64 N9        30.01R
EMPORIA        CLEAR     83  73  72 S13       29.92R
LAWRENCE       CLEAR     82  73  74 SE7       29.92R
MANHATTAN      CLOUDY    81  74  79 NE12      29.94R
MARYSVILLE     CLOUDY    77  63  61 N15       30.01R
OLATHE IND     CLEAR     82  73  74 S8        29.95R
OLATHE EXE     CLEAR     80  72  76 S7        29.94R
SALINA         MOCLDY    82  72  71 N14       29.97R
TOPEKA BILLARD CLEAR     87  74  64 S6        29.91R HX  95
TOPEKA FORBES  CLEAR     87  73  62 S9        29.92R
$$



USA.gov is the U.S. government's official web portal to all federal, state and local government web resources and services.